Location: Unspecified
(0.0000°N, 0.0000°E)
Time: 16:16:45
(UTC+00:00)

Tiros 1 - Pass Details

Date: 28 November 2019
Orbit: 630 x 664 km, 48.4° (Epoch: 12 December)

Event Time Altitude Azimuth Distance (km) Brightness Sun altitude
Rises 08:49:55 0° 252° (WSW) 2,955 10.2 41.7°
Reaches altitude 10° 08:53:14 10° 276° (W) 2,034 9.4 42.4°
Maximum altitude 08:55:49 15° 310° (NW) 1,735 9.1 43.0°
Drops below altitude 10° 08:58:23 10° 344° (NNW) 2,017 9.5 43.5°
Sets 09:01:40 0° 8° (N) 2,915 10.3 44.2°
